Location: Newark
(45.5167°N, 11.1667°E)
Time: 02:31:50
(UTC+00:00)

Transit 2A Rocket - All Passes

Search period start: 08 December 2019 00:00
Search period end: 18 December 2019 00:00
Orbit: 594 x 909 km, 66.7° (Epoch: 07 December)

Date Brightness Start Highest point End Pass type
(mag) Time Alt. Az. Time Alt. Az. Time Alt. Az.
08 Dec - 01:21:36 10° NW 01:25:58 57° WSW 01:30:38 10° SSE night (unlit)
08 Dec - 15:58:26 10° SSW 16:02:58 61° ESE 16:07:17 10° NE visible
08 Dec - 17:42:33 10° W 17:45:51 20° NW 17:49:05 10° N visible
08 Dec - 22:57:47 10° N 23:00:17 15° NE 23:02:49 10° ENE night (unlit)
09 Dec - 00:39:01 10° NNW 00:43:28 81° ENE 00:48:14 10° SE night (unlit)
09 Dec - 02:23:32 10° W 02:25:27 12° WSW 02:27:26 10° SW night (unlit)
09 Dec - 15:16:25 10° S 15:20:33 34° ESE 15:24:30 10° NE daylight
09 Dec - 16:59:04 10° WSW 17:03:04 31° NW 17:06:57 10° NNE visible
09 Dec - 23:56:37 10° NNW 00:00:54 47° NE 00:05:27 10° SE night (unlit)
10 Dec - 01:39:40 10° WNW 01:43:10 22° WSW 01:46:52 10° SSW night (unlit)
10 Dec - 14:35:01 10° SSE 14:38:13 19° ESE 14:41:20 10° ENE daylight
10 Dec - 16:15:59 10° SW 16:20:24 51° NW 16:24:39 10° NNE visible
10 Dec - 18:03:13 10° NW 18:03:57 10° NNW 18:04:41 10° NNW visible
10 Dec - 23:14:20 10° NNW 23:18:13 29° NE 23:22:17 10° ESE night (unlit)
11 Dec - 00:56:38 10° NW 01:00:49 39° WSW 01:05:16 10° S night (unlit)
11 Dec - 13:55:31 10° ESE 13:55:59 10° ESE 13:56:26 10° E daylight
11 Dec - 15:33:17 10° SSW 15:37:50 90° ESE 15:42:12 10° NNE daylight
11 Dec - 17:18:21 10° WNW 17:20:59 15° NW 17:23:34 10° N visible
11 Dec - 22:32:14 10° N 22:35:25 19° NE 22:38:43 10° E night (unlit)
12 Dec - 00:13:55 10° NW 00:18:22 70° WSW 00:23:08 10° SSE night (unlit)
12 Dec - 14:50:58 10° SSW 14:55:22 49° ESE 14:59:35 10° NE daylight
12 Dec - 16:34:34 10° W 16:38:07 23° NW 16:41:36 10° N visible
12 Dec - 21:50:27 10° N 21:52:31 13° NE 21:54:36 10° ENE night (unlit)
12 Dec - 23:31:24 10° NNW 23:35:51 67° NE 23:40:35 10° SE night (unlit)
13 Dec - 01:15:14 10° WNW 01:17:56 16° WSW 01:20:44 10° SW night (unlit)
13 Dec - 14:09:08 10° S 14:12:59 27° ESE 14:16:42 10° NE daylight
13 Dec - 15:51:14 10° WSW 15:55:23 36° NW 15:59:25 10° NNE daylight
13 Dec - 22:49:02 10° NNW 22:53:14 39° NE 22:57:41 10° ESE night (unlit)
14 Dec - 00:31:48 10° NW 00:35:38 27° WSW 00:39:41 10° S night (unlit)
14 Dec - 13:28:02 10° SE 13:30:41 15° ESE 13:33:16 10° ENE daylight
14 Dec - 15:08:17 10° SW 15:12:45 62° NW 15:17:04 10° NNE daylight
14 Dec - 16:54:32 10° NW 16:56:10 12° NNW 16:57:47 10° NNW visible
14 Dec - 22:06:48 10° NNW 22:10:31 25° NE 22:14:23 10° E night (unlit)
14 Dec - 23:48:54 10° NW 23:53:14 48° WSW 23:57:53 10° S night (unlit)
15 Dec - 14:25:42 10° SSW 14:30:13 74° ESE 14:34:34 10° NE daylight
15 Dec - 16:10:15 10° W 16:13:14 17° NW 16:16:10 10° N visible
15 Dec - 21:24:47 10° N 21:27:41 17° NE 21:30:40 10° E night (unlit)
15 Dec - 23:06:16 10° NW 23:10:46 85° WSW 23:15:36 10° SSE night (unlit)
16 Dec - 00:51:50 10° W 00:52:39 10° WSW 00:53:29 10° WSW night (unlit)
16 Dec - 13:43:33 10° S 13:47:47 40° ESE 13:51:52 10° NE daylight
16 Dec - 15:26:38 10° WSW 15:30:24 26° NW 15:34:06 10° NNE daylight
16 Dec - 20:43:15 10° NNE 20:44:44 11° NNE 20:46:14 10° NE night (unlit)
16 Dec - 22:23:48 10° NNW 22:28:12 56° NE 22:32:55 10° SE night (unlit)
17 Dec - 00:07:10 10° WNW 00:10:24 19° WSW 00:13:49 10° SSW night (unlit)
17 Dec - 13:01:55 10° SSE 13:05:26 22° ESE 13:08:50 10° ENE daylight
17 Dec - 14:43:26 10° SW 14:47:42 43° NW 14:51:51 10° NNE daylight
17 Dec - 21:41:29 10° NNW 21:45:33 34° NE 21:49:53 10° ESE night (unlit)
17 Dec - 23:23:59 10° NW 23:28:04 33° WSW 23:32:25 10° S night (unlit)
